Time,TemperatureF,DewpointF,PressureIn,WindDirection,WindDirectionDegrees,WindSpeedMPH,WindSpeedGustMPH,Humidity,HourlyPrecipIn,Conditions,Clouds,dailyrainin,SoftwareType,DateUTC
2013-01-01 00:01:00,34.1,33.1,30.34,WSW,250,0.0,6.0,96,0.00,,,0.00,Wunderground v.1.15,2013-01-01 08:01:00,
2013-01-01 00:07:00,33.9,32.9,30.34,WSW,250,0.0,6.0,96,0.00,,,0.00,Wunderground v.1.15,2013-01-01 08:07:00,
2013-01-01 00:13:00,33.7,32.9,30.35,WSW,250,0.0,6.0,97,0.00,,,0.00,Wunderground v.1.15,2013-01-01 08:13:00,
2013-01-01 00:19:00,33.6,32.8,30.34,WSW,249,0.0,6.0,97,0.00,,,0.00,Wunderground v.1.15,2013-01-01 08:19:00,
2013-01-01 00:25:00,33.4,32.4,30.34,NW,321,0.0,6.0,96,0.00,,,0.00,Wunderground v.1.15,2013-01-01 08:25:00,
2013-01-01 00:30:00,33.5,32.7,30.34,NW,321,0.0,6.0,97,0.00,,,0.00,Wunderground v.1.15,2013-01-01 08:30:00,
2013-01-01 00:36:00,33.2,32.4,30.34,NW,321,0.0,6.0,97,0.00,,,0.00,Wunderground v.1.15,2013-01-01 08:36:00,
2013-01-01 00:42:00,33.0,32.2,30.34,NW,321,1.0,6.0,97,0.00,,,0.00,Wunderground v.1.15,2013-01-01 08:42:00,
2013-01-01 00:48:00,32.8,32.0,30.35,NW,321,0.0,6.0,97,0.00,,,0.00,Wunderground v.1.15,2013-01-01 08:48:00,
2013-01-01 00:54:00,32.7,31.9,30.36,NW,321,0.0,6.0,97,0.00,,,0.00,Wunderground v.1.15,2013-01-01 08:54:00,
2013-01-01 01:00:00,32.6,31.8,30.36,NW,321,0.0,6.0,97,0.00,,,0.00,Wunderground v.1.15,2013-01-01 09:00:00,
2013-01-01 01:06:00,32.5,31.7,30.35,NW,321,0.0,6.0,97,0.00,,,0.00,Wunderground v.1.15,2013-01-01 09:06:00,
2013-01-01 01:11:00,32.4,31.6,30.35,NW,321,0.0,6.0,97,0.00,,,0.00,Wunderground v.1.15,2013-01-01 09:11:00,
2013-01-01 01:17:00,32.3,31.5,30.36,NW,321,0.0,6.0,97,0.00,,,0.00,Wunderground v.1.15,2013-01-01 09:17:00,
2013-01-01 01:23:00,32.3,31.5,30.36,NW,321,0.0,6.0,97,0.00,,,0.00,Wunderground v.1.15,2013-01-01 09:23:00,
2013-01-01 01:28:00,32.3,31.5,30.36,NW,321,0.0,6.0,97,0.00,,,0.00,Wunderground v.1.15,2013-01-01 09:28:00,
2013-01-01 01:34:00,32.2,31.4,30.37,NW,321,0.0,6.0,97,0.00,,,0.00,Wunderground v.1.15,2013-01-01 09:34:00,
2013-01-01 01:39:00,32.1,31.3,30.37,NW,321,0.0,6.0,97,0.00,,,0.00,Wunderground v.1.15,2013-01-01 09:39:00,
2013-01-01 01:45:00,32.1,31.6,30.37,NW,321,0.0,6.0,98,0.00,,,0.00,Wunderground v.1.15,2013-01-01 09:45:00,
2013-01-01 01:50:00,32.0,31.5,30.37,NW,321,0.0,6.0,98,0.00,,,0.00,Wunderground v.1.15,2013-01-01 09:50:00,
2013-01-01 01:56:00,31.9,31.4,30.37,NW,321,0.0,6.0,98,0.00,,,0.00,Wunderground v.1.15,2013-01-01 09:56:00,
2013-01-01 02:02:00,31.8,31.0,30.37,NW,321,0.0,6.0,97,0.00,,,0.00,Wunderground v.1.15,2013-01-01 10:02:00,
2013-01-01 02:08:00,31.7,30.9,30.38,NW,321,0.0,6.0,97,0.00,,,0.00,Wunderground v.1.15,2013-01-01 10:08:00,
2013-01-01 02:14:00,31.5,31.0,30.37,NW,321,0.0,6.0,98,0.00,,,0.00,Wunderground v.1.15,2013-01-01 10:14:00,
2013-01-01 02:20:00,31.5,31.0,30.37,NW,321,0.0,6.0,98,0.00,,,0.00,Wunderground v.1.15,2013-01-01 10:20:00,
2013-01-01 02:25:00,31.5,31.0,30.37,NW,321,0.0,6.0,98,0.00,,,0.00,Wunderground v.1.15,2013-01-01 10:25:00,
2013-01-01 02:31:00,31.4,30.6,30.38,NW,321,0.0,6.0,97,0.00,,,0.00,Wunderground v.1.15,2013-01-01 10:31:00,
2013-01-01 02:37:00,31.3,30.8,30.38,NW,321,0.0,6.0,98,0.00,,,0.00,Wunderground v.1.15,2013-01-01 10:37:00,
2013-01-01 02:43:00,31.1,30.6,30.38,NW,321,0.0,6.0,98,0.00,,,0.00,Wunderground v.1.15,2013-01-01 10:43:00,
2013-01-01 02:48:00,31.0,30.5,30.38,NW,321,0.0,6.0,98,0.00,,,0.00,Wunderground v.1.15,2013-01-01 10:48:00,
2013-01-01 02:54:00,30.9,30.4,30.38,NW,321,0.0,6.0,98,0.00,,,0.00,Wunderground v.1.15,2013-01-01 10:54:00,
2013-01-01 03:00:00,30.8,30.0,30.37,NW,321,0.0,6.0,97,0.00,,,0.00,Wunderground v.1.15,2013-01-01 11:00:00,
2013-01-01 03:06:00,30.7,30.0,30.37,NW,321,0.0,6.0,97,0.00,,,0.00,Wunderground v.1.15,2013-01-01 11:06:00,
2013-01-01 03:12:00,30.6,30.1,30.37,NW,321,0.0,6.0,98,0.00,,,0.00,Wunderground v.1.15,2013-01-01 11:12:00,
2013-01-01 03:18:00,30.7,30.2,30.37,NW,321,0.0,6.0,98,0.00,,,0.00,Wunderground v.1.15,2013-01-01 11:18:00,
2013-01-01 03:24:00,30.6,30.1,30.36,NW,321,0.0,6.0,98,0.00,,,0.00,Wunderground v.1.15,2013-01-01 11:24:00,
2013-01-01 03:30:00,30.5,30.0,30.36,NW,321,0.0,6.0,98,0.00,,,0.00,Wunderground v.1.15,2013-01-01 11:30:00,
2013-01-01 03:35:00,30.4,29.9,30.36,NW,321,0.0,6.0,98,0.00,,,0.00,Wunderground v.1.15,2013-01-01 11:35:00,
2013-01-01 03:41:00,30.5,30.0,30.36,NW,321,0.0,6.0,98,0.00,,,0.00,Wunderground v.1.15,2013-01-01 11:41:00,
2013-01-01 03:46:00,30.4,29.9,30.35,NW,321,0.0,6.0,98,0.00,,,0.00,Wunderground v.1.15,2013-01-01 11:46:00,
2013-01-01 03:52:00,30.5,30.0,30.35,NW,321,0.0,6.0,98,0.00,,,0.00,Wunderground v.1.15,2013-01-01 11:52:00,
2013-01-01 03:58:00,30.6,30.1,30.35,NW,321,0.0,6.0,98,0.00,,,0.00,Wunderground v.1.15,2013-01-01 11:58:00,
2013-01-01 04:04:00,30.6,30.1,30.34,NW,321,0.0,6.0,98,0.00,,,0.00,Wunderground v.1.15,2013-01-01 12:04:00,
2013-01-01 04:10:00,30.6,30.1,30.34,NW,321,0.0,6.0,98,0.00,,,0.00,Wunderground v.1.15,2013-01-01 12:10:00,
2013-01-01 04:16:00,30.6,30.1,30.34,NW,321,0.0,6.0,98,0.00,,,0.00,Wunderground v.1.15,2013-01-01 12:16:00,
2013-01-01 04:22:00,30.7,30.2,30.34,NW,321,0.0,6.0,98,0.00,,,0.00,Wunderground v.1.15,2013-01-01 12:22:00,
2013-01-01 04:28:00,30.7,30.2,30.34,NW,321,0.0,6.0,98,0.00,,,0.00,Wunderground v.1.15,2013-01-01 12:28:00,
2013-01-01 04:34:00,30.7,30.2,30.34,NW,321,0.0,6.0,98,0.00,,,0.00,Wunderground v.1.15,2013-01-01 12:34:00,
2013-01-01 04:40:00,30.7,30.2,30.34,NW,321,0.0,6.0,98,0.00,,,0.00,Wunderground v.1.15,2013-01-01 12:40:00,
2013-01-01 04:46:00,30.8,30.3,30.34,NW,321,0.0,6.0,98,0.00,,,0.00,Wunderground v.1.15,2013-01-01 12:46:00,
2013-01-01 04:52:00,30.9,30.4,30.34,NW,321,0.0,6.0,98,0.00,,,0.00,Wunderground v.1.15,2013-01-01 12:52:00,
2013-01-01 04:58:00,30.9,30.4,30.34,NW,321,0.0,6.0,98,0.00,,,0.00,Wunderground v.1.15,2013-01-01 12:58:00,
2013-01-01 05:04:00,30.8,30.3,30.34,NW,321,0.0,6.0,98,0.00,,,0.00,Wunderground v.1.15,2013-01-01 13:04:00,
2013-01-01 05:10:00,30.6,30.1,30.34,NW,321,0.0,6.0,98,0.00,,,0.00,Wunderground v.1.15,2013-01-01 13:10:00,
2013-01-01 05:16:00,30.5,30.0,30.34,NW,321,0.0,6.0,98,0.00,,,0.00,Wunderground v.1.15,2013-01-01 13:16:00,
2013-01-01 05:22:00,30.5,30.0,30.34,NW,321,0.0,6.0,98,0.00,,,0.00,Wunderground v.1.15,2013-01-01 13:22:00,
2013-01-01 05:28:00,30.3,29.8,30.35,NW,321,0.0,6.0,98,0.00,,,0.00,Wunderground v.1.15,2013-01-01 13:28:00,
2013-01-01 05:34:00,30.2,29.7,30.35,NW,321,0.0,6.0,98,0.00,,,0.00,Wunderground v.1.15,2013-01-01 13:34:00,
2013-01-01 05:40:00,30.1,29.6,30.36,NW,321,0.0,6.0,98,0.00,,,0.00,Wunderground v.1.15,2013-01-01 13:40:00,
2013-01-01 05:46:00,30.1,29.6,30.36,NW,321,0.0,6.0,98,0.00,,,0.00,Wunderground v.1.15,2013-01-01 13:46:00,
2013-01-01 05:52:00,30.1,29.6,30.36,NW,321,0.0,6.0,98,0.00,,,0.00,Wunderground v.1.15,2013-01-01 13:52:00,
2013-01-01 05:58:00,30.0,29.5,30.36,NW,321,0.0,6.0,98,0.00,,,0.00,Wunderground v.1.15,2013-01-01 13:58:00,
2013-01-01 06:04:00,30.0,29.5,30.36,NW,321,0.0,6.0,98,0.00,,,0.00,Wunderground v.1.15,2013-01-01 14:04:00,
2013-01-01 06:10:00,29.9,29.4,30.36,NW,321,0.0,6.0,98,0.00,,,0.00,Wunderground v.1.15,2013-01-01 14:10:00,
2013-01-01 06:16:00,29.9,29.4,30.36,NW,321,0.0,6.0,98,0.00,,,0.00,Wunderground v.1.15,2013-01-01 14:16:00,
2013-01-01 06:22:00,30.1,29.6,30.36,NW,321,0.0,6.0,98,0.00,,,0.00,Wunderground v.1.15,2013-01-01 14:22:00,
2013-01-01 06:28:00,30.1,29.6,30.37,NW,321,0.0,6.0,98,0.00,,,0.00,Wunderground v.1.15,2013-01-01 14:28:00,
2013-01-01 06:34:00,30.0,29.5,30.37,NW,321,0.0,6.0,98,0.00,,,0.00,Wunderground v.1.15,2013-01-01 14:34:00,
2013-01-01 06:40:00,29.9,29.4,30.37,NW,321,0.0,6.0,98,0.00,,,0.00,Wunderground v.1.15,2013-01-01 14:40:00,
2013-01-01 06:46:00,29.9,29.4,30.36,NW,321,0.0,6.0,98,0.00,,,0.00,Wunderground v.1.15,2013-01-01 14:46:00,
2013-01-01 06:51:00,29.9,29.4,30.36,NW,321,0.0,6.0,98,0.00,,,0.00,Wunderground v.1.15,2013-01-01 14:51:00,
2013-01-01 06:56:00,29.8,29.3,30.36,NW,321,0.0,6.0,98,0.00,,,0.00,Wunderground v.1.15,2013-01-01 14:56:00,
2013-01-01 07:02:00,29.7,29.2,30.36,NW,321,0.0,6.0,98,0.00,,,0.00,Wunderground v.1.15,2013-01-01 15:02:00,
2013-01-01 07:08:00,29.7,29.2,30.36,NW,321,0.0,6.0,98,0.00,,,0.00,Wunderground v.1.15,2013-01-01 15:08:00,
2013-01-01 07:14:00,29.7,29.2,30.36,NW,321,0.0,6.0,98,0.00,,,0.00,Wunderground v.1.15,2013-01-01 15:14:00,
2013-01-01 07:20:00,29.8,29.3,30.36,NW,321,0.0,6.0,98,0.00,,,0.00,Wunderground v.1.15,2013-01-01 15:20:00,
2013-01-01 07:26:00,29.7,29.2,30.36,NW,321,0.0,6.0,98,0.00,,,0.00,Wunderground v.1.15,2013-01-01 15:26:00,
2013-01-01 07:32:00,29.3,28.8,30.36,NW,321,0.0,6.0,98,0.00,,,0.00,Wunderground v.1.15,2013-01-01 15:32:00,
2013-01-01 07:38:00,29.2,28.7,30.36,NW,321,0.0,6.0,98,0.00,,,0.00,Wunderground v.1.15,2013-01-01 15:38:00,
2013-01-01 07:43:00,29.3,28.8,30.37,NW,321,0.0,6.0,98,0.00,,,0.00,Wunderground v.1.15,2013-01-01 15:43:00,
2013-01-01 07:49:00,29.2,28.7,30.37,NW,321,0.0,6.0,98,0.00,,,0.00,Wunderground v.1.15,2013-01-01 15:49:00,
2013-01-01 07:54:00,29.2,28.7,30.37,NW,321,0.0,6.0,98,0.00,,,0.00,Wunderground v.1.15,2013-01-01 15:54:00,
2013-01-01 08:00:00,29.2,28.7,30.37,NW,321,0.0,6.0,98,0.00,,,0.00,Wunderground v.1.15,2013-01-01 16:00:00,
2013-01-01 08:05:00,29.2,28.7,30.37,NW,321,0.0,6.0,98,0.00,,,0.00,Wunderground v.1.15,2013-01-01 16:05:00,
2013-01-01 08:11:00,29.2,28.7,30.37,NW,321,0.0,6.0,98,0.00,,,0.00,Wunderground v.1.15,2013-01-01 16:11:00,
2013-01-01 08:17:00,29.2,28.7,30.38,NW,321,0.0,6.0,98,0.00,,,0.00,Wunderground v.1.15,2013-01-01 16:17:00,
2013-01-01 08:23:00,29.1,28.6,30.37,NW,321,0.0,6.0,98,0.00,,,0.00,Wunderground v.1.15,2013-01-01 16:23:00,
2013-01-01 08:29:00,29.3,28.8,30.37,NW,321,0.0,6.0,98,0.00,,,0.00,Wunderground v.1.15,2013-01-01 16:29:00,
2013-01-01 08:35:00,29.5,29.0,30.37,NW,321,0.0,6.0,98,0.00,,,0.00,Wunderground v.1.15,2013-01-01 16:35:00,
2013-01-01 08:41:00,29.5,29.0,30.37,NW,321,0.0,6.0,98,0.00,,,0.00,Wunderground v.1.15,2013-01-01 16:41:00,
2013-01-01 08:46:00,29.4,28.9,30.37,NW,321,0.0,6.0,98,0.00,,,0.00,Wunderground v.1.15,2013-01-01 16:46:00,
2013-01-01 08:52:00,29.5,29.0,30.38,NW,321,0.0,6.0,98,0.00,,,0.00,Wunderground v.1.15,2013-01-01 16:52:00,
2013-01-01 08:57:00,29.6,29.1,30.38,NW,321,0.0,6.0,98,0.00,,,0.00,Wunderground v.1.15,2013-01-01 16:57:00,
2013-01-01 09:03:00,29.7,29.2,30.37,NW,321,0.0,6.0,98,0.00,,,0.00,Wunderground v.1.15,2013-01-01 17:03:00,
2013-01-01 09:09:00,30.0,29.5,30.37,North,349,0.0,6.0,98,0.00,,,0.00,Wunderground v.1.15,2013-01-01 17:09:00,
2013-01-01 09:15:00,30.4,29.9,30.37,North,349,0.0,6.0,98,0.00,,,0.00,Wunderground v.1.15,2013-01-01 17:15:00,
2013-01-01 09:21:00,30.9,30.4,30.37,North,349,0.0,6.0,98,0.00,,,0.00,Wunderground v.1.15,2013-01-01 17:21:00,
2013-01-01 09:27:00,31.3,30.8,30.37,NNW,348,0.0,6.0,98,0.00,,,0.00,Wunderground v.1.15,2013-01-01 17:27:00,
2013-01-01 09:33:00,31.9,31.4,30.38,NNW,348,0.0,6.0,98,0.00,,,0.00,Wunderground v.1.15,2013-01-01 17:33:00,
2013-01-01 09:39:00,32.4,32.2,30.38,NNW,348,0.0,6.0,99,0.00,,,0.00,Wunderground v.1.15,2013-01-01 17:39:00,
2013-01-01 09:45:00,32.8,32.6,30.38,NNW,348,0.0,6.0,99,0.00,,,0.00,Wunderground v.1.15,2013-01-01 17:45:00,
2013-01-01 09:51:00,33.4,33.1,30.38,NNW,348,0.0,6.0,99,0.00,,,0.00,Wunderground v.1.15,2013-01-01 17:51:00,
2013-01-01 09:56:00,33.8,33.5,30.38,SSE,151,0.0,6.0,99,0.00,,,0.00,Wunderground v.1.15,2013-01-01 17:56:00,
2013-01-01 10:02:00,34.4,34.1,30.38,SSE,151,0.0,6.0,99,0.00,,,0.00,Wunderground v.1.15,2013-01-01 18:02:00,
2013-01-01 10:07:00,34.8,34.5,30.38,SSE,153,0.0,6.0,99,0.00,,,0.00,Wunderground v.1.15,2013-01-01 18:07:00,
2013-01-01 10:13:00,35.5,35.2,30.38,SSE,153,0.0,6.0,99,0.00,,,0.00,Wunderground v.1.15,2013-01-01 18:13:00,
2013-01-01 10:19:00,36.3,35.8,30.37,SSE,153,0.0,6.0,98,0.00,,,0.00,Wunderground v.1.15,2013-01-01 18:19:00,
2013-01-01 10:24:00,36.7,36.2,30.37,SSE,153,0.0,6.0,98,0.00,,,0.00,Wunderground v.1.15,2013-01-01 18:24:00,
2013-01-01 10:29:00,37.3,36.5,30.37,SSE,153,0.0,6.0,97,0.00,,,0.00,Wunderground v.1.15,2013-01-01 18:29:00,
2013-01-01 10:34:00,38.0,36.2,30.36,SE,146,0.0,6.0,93,0.00,,,0.00,Wunderground v.1.15,2013-01-01 18:34:00,
2013-01-01 10:40:00,38.8,35.8,30.36,South,171,1.0,6.0,89,0.00,,,0.00,Wunderground v.1.15,2013-01-01 18:40:00,
2013-01-01 10:46:00,39.4,35.6,30.36,South,169,1.0,6.0,86,0.00,,,0.00,Wunderground v.1.15,2013-01-01 18:46:00,
2013-01-01 10:51:00,40.0,35.9,30.36,South,170,0.0,6.0,85,0.00,,,0.00,Wunderground v.1.15,2013-01-01 18:51:00,
2013-01-01 10:57:00,40.7,36.2,30.36,South,178,0.0,6.0,84,0.00,,,0.00,Wunderground v.1.15,2013-01-01 18:57:00,
2013-01-01 11:02:00,41.4,36.6,30.36,South,178,0.0,6.0,83,0.00,,,0.00,Wunderground v.1.15,2013-01-01 19:02:00,
2013-01-01 11:07:00,41.7,36.9,30.36,South,178,0.0,6.0,83,0.00,,,0.00,Wunderground v.1.15,2013-01-01 19:07:00,
2013-01-01 11:13:00,41.7,36.0,30.35,SSW,199,0.0,6.0,80,0.00,,,0.00,Wunderground v.1.15,2013-01-01 19:13:00,
2013-01-01 11:19:00,42.2,36.2,30.35,SSW,199,0.0,6.0,79,0.00,,,0.00,Wunderground v.1.15,2013-01-01 19:19:00,
2013-01-01 11:24:00,42.3,37.5,30.35,SSW,199,0.0,6.0,83,0.00,,,0.00,Wunderground v.1.15,2013-01-01 19:24:00,
2013-01-01 11:30:00,42.7,36.0,30.35,SSE,163,0.0,6.0,77,0.00,,,0.00,Wunderground v.1.15,2013-01-01 19:30:00,
2013-01-01 11:36:00,43.7,37.9,30.35,SSE,163,0.0,6.0,80,0.00,,,0.00,Wunderground v.1.15,2013-01-01 19:36:00,
2013-01-01 11:41:00,44.0,36.2,30.35,South,176,0.0,6.0,74,0.00,,,0.00,Wunderground v.1.15,2013-01-01 19:41:00,
2013-01-01 11:47:00,44.5,36.0,30.35,South,176,0.0,6.0,72,0.00,,,0.00,Wunderground v.1.15,2013-01-01 19:47:00,
2013-01-01 11:53:00,45.2,37.7,30.34,South,187,0.0,6.0,75,0.00,,,0.00,Wunderground v.1.15,2013-01-01 19:53:00,
2013-01-01 11:59:00,45.6,36.0,30.34,South,187,0.0,6.0,69,0.00,,,0.00,Wunderground v.1.15,2013-01-01 19:59:00,
2013-01-01 12:04:00,45.4,37.6,30.34,South,186,0.0,6.0,74,0.00,,,0.00,Wunderground v.1.15,2013-01-01 20:04:00,
2013-01-01 12:10:00,45.5,38.0,30.34,SSW,194,0.0,6.0,75,0.00,,,0.00,Wunderground v.1.15,2013-01-01 20:10:00,
2013-01-01 12:16:00,45.4,39.3,30.33,SSW,213,0.0,6.0,79,0.00,,,0.00,Wunderground v.1.15,2013-01-01 20:16:00,
2013-01-01 12:21:00,45.3,38.5,30.33,SSW,213,0.0,6.0,77,0.00,,,0.00,Wunderground v.1.15,2013-01-01 20:21:00,
2013-01-01 12:27:00,45.1,37.3,30.33,SSW,213,0.0,6.0,74,0.00,,,0.00,Wunderground v.1.15,2013-01-01 20:27:00,
2013-01-01 12:33:00,45.0,38.2,30.33,WSW,251,0.0,6.0,77,0.00,,,0.00,Wunderground v.1.15,2013-01-01 20:33:00,
2013-01-01 12:38:00,45.1,38.3,30.32,WSW,257,1.0,6.0,77,0.00,,,0.00,Wunderground v.1.15,2013-01-01 20:38:00,
2013-01-01 12:43:00,45.4,37.2,30.32,WSW,242,1.0,6.0,73,0.00,,,0.00,Wunderground v.1.15,2013-01-01 20:43:00,
2013-01-01 12:49:00,45.4,38.3,30.32,WSW,242,1.0,6.0,76,0.00,,,0.00,Wunderground v.1.15,2013-01-01 20:49:00,
2013-01-01 12:54:00,45.4,37.9,30.31,WSW,243,0.0,6.0,75,0.00,,,0.00,Wunderground v.1.15,2013-01-01 20:54:00,
2013-01-01 12:59:00,45.6,39.5,30.31,WSW,242,1.0,6.0,79,0.00,,,0.00,Wunderground v.1.15,2013-01-01 20:59:00,
2013-01-01 13:05:00,45.5,39.0,30.31,WSW,243,0.0,6.0,78,0.00,,,0.00,Wunderground v.1.15,2013-01-01 21:05:00,
2013-01-01 13:11:00,45.5,39.0,30.31,WSW,243,0.0,6.0,78,0.00,,,0.00,Wunderground v.1.15,2013-01-01 21:11:00,
2013-01-01 13:17:00,45.5,39.0,30.31,WSW,243,0.0,6.0,78,0.00,,,0.00,Wunderground v.1.15,2013-01-01 21:17:00,
2013-01-01 13:23:00,45.7,37.2,30.31,WSW,243,0.0,6.0,72,0.00,,,0.00,Wunderground v.1.15,2013-01-01 21:23:00,
2013-01-01 13:29:00,45.9,39.1,30.30,WSW,243,0.0,6.0,77,0.00,,,0.00,Wunderground v.1.15,2013-01-01 21:29:00,
2013-01-01 13:34:00,46.1,38.3,30.30,SE,138,0.0,6.0,74,0.00,,,0.00,Wunderground v.1.15,2013-01-01 21:34:00,
2013-01-01 13:40:00,46.4,39.6,30.29,SE,143,0.0,6.0,77,0.00,,,0.00,Wunderground v.1.15,2013-01-01 21:40:00,
2013-01-01 13:46:00,46.4,38.9,30.30,SW,227,0.0,6.0,75,0.00,,,0.00,Wunderground v.1.15,2013-01-01 21:46:00,
2013-01-01 13:52:00,46.4,40.6,30.29,SW,223,0.0,6.0,80,0.00,,,0.00,Wunderground v.1.15,2013-01-01 21:52:00,
2013-01-01 13:58:00,46.5,41.0,30.29,SW,223,0.0,6.0,81,0.00,,,0.00,Wunderground v.1.15,2013-01-01 21:58:00,
2013-01-01 14:04:00,46.2,39.7,30.29,South,184,0.0,6.0,78,0.00,,,0.00,Wunderground v.1.15,2013-01-01 22:04:00,
2013-01-01 14:10:00,46.5,38.7,30.30,South,171,0.0,6.0,74,0.00,,,0.00,Wunderground v.1.15,2013-01-01 22:10:00,
2013-01-01 14:16:00,47.0,39.1,30.30,SSW,211,0.0,6.0,74,0.00,,,0.00,Wunderground v.1.15,2013-01-01 22:16:00,
2013-01-01 14:22:00,47.5,38.9,30.30,SSW,211,0.0,6.0,72,0.00,,,0.00,Wunderground v.1.15,2013-01-01 22:22:00,
2013-01-01 14:28:00,47.8,41.3,30.30,SSW,211,0.0,6.0,78,0.00,,,0.00,Wunderground v.1.15,2013-01-01 22:28:00,
2013-01-01 14:34:00,47.9,42.3,30.30,SSW,211,0.0,6.0,81,0.00,,,0.00,Wunderground v.1.15,2013-01-01 22:34:00,
2013-01-01 14:40:00,48.2,39.2,30.30,SSE,163,0.0,6.0,71,0.00,,,0.00,Wunderground v.1.15,2013-01-01 22:40:00,
2013-01-01 14:46:00,48.0,38.3,30.30,SSE,167,1.0,6.0,69,0.00,,,0.00,Wunderground v.1.15,2013-01-01 22:46:00,
2013-01-01 14:51:00,48.0,37.6,30.31,SW,219,1.0,2.0,67,0.00,,,0.00,Wunderground v.1.15,2013-01-01 22:51:00,
2013-01-01 14:57:00,48.5,38.4,30.31,SW,219,0.0,6.0,68,0.00,,,0.00,Wunderground v.1.15,2013-01-01 22:57:00,
2013-01-01 15:03:00,48.3,37.8,30.31,SSE,158,1.0,6.0,67,0.00,,,0.00,Wunderground v.1.15,2013-01-01 23:03:00,
2013-01-01 15:09:00,47.8,38.5,30.30,SSE,166,1.0,6.0,70,0.00,,,0.00,Wunderground v.1.15,2013-01-01 23:09:00,
2013-01-01 15:15:00,47.2,37.9,30.30,South,177,1.0,6.0,70,0.00,,,0.00,Wunderground v.1.15,2013-01-01 23:15:00,
2013-01-01 15:20:00,46.7,39.5,30.30,South,172,0.0,6.0,76,0.00,,,0.00,Wunderground v.1.15,2013-01-01 23:20:00,
2013-01-01 15:26:00,46.3,38.1,30.30,SSE,165,0.0,6.0,73,0.00,,,0.00,Wunderground v.1.15,2013-01-01 23:26:00,
2013-01-01 15:32:00,46.1,37.6,30.30,SSE,165,0.0,6.0,72,0.00,,,0.00,Wunderground v.1.15,2013-01-01 23:32:00,
2013-01-01 15:38:00,45.7,38.9,30.30,SSE,165,0.0,6.0,77,0.00,,,0.00,Wunderground v.1.15,2013-01-01 23:38:00,
2013-01-01 15:44:00,45.2,39.7,30.30,SSE,165,0.0,6.0,81,0.00,,,0.00,Wunderground v.1.15,2013-01-01 23:44:00,
2013-01-01 15:49:00,44.7,39.5,30.30,SSE,165,0.0,6.0,82,0.00,,,0.00,Wunderground v.1.15,2013-01-01 23:49:00,
2013-01-01 15:54:00,44.2,39.1,30.30,SSE,165,0.0,6.0,82,0.00,,,0.00,Wunderground v.1.15,2013-01-01 23:54:00,
2013-01-01 15:59:00,43.8,38.7,30.30,SSE,165,0.0,6.0,82,0.00,,,0.00,Wunderground v.1.15,2013-01-01 23:59:00,
2013-01-01 16:05:00,43.5,38.1,30.29,SSE,165,0.0,6.0,81,0.00,,,0.00,Wunderground v.1.15,2013-01-02 00:05:00,
2013-01-01 16:11:00,43.3,37.9,30.29,SSE,165,0.0,6.0,81,0.00,,,0.00,Wunderground v.1.15,2013-01-02 00:11:00,
2013-01-01 16:17:00,43.1,37.0,30.29,SSE,165,0.0,6.0,79,0.00,,,0.00,Wunderground v.1.15,2013-01-02 00:17:00,
2013-01-01 16:22:00,42.9,36.8,30.29,SSE,165,0.0,6.0,79,0.00,,,0.00,Wunderground v.1.15,2013-01-02 00:22:00,
2013-01-01 16:28:00,42.7,37.3,30.29,South,170,0.0,6.0,81,0.00,,,0.00,Wunderground v.1.15,2013-01-02 00:28:00,
2013-01-01 16:33:00,42.4,37.0,30.29,South,170,0.0,6.0,81,0.00,,,0.00,Wunderground v.1.15,2013-01-02 00:33:00,
2013-01-01 16:38:00,41.9,36.5,30.29,South,170,0.0,6.0,81,0.00,,,0.00,Wunderground v.1.15,2013-01-02 00:38:00,
2013-01-01 16:44:00,41.4,36.6,30.29,SE,126,0.0,6.0,83,0.00,,,0.00,Wunderground v.1.15,2013-01-02 00:44:00,
2013-01-01 16:50:00,40.8,36.0,30.29,SE,126,0.0,6.0,83,0.00,,,0.00,Wunderground v.1.15,2013-01-02 00:50:00,
2013-01-01 16:56:00,40.2,35.8,30.29,SE,126,0.0,6.0,84,0.00,,,0.00,Wunderground v.1.15,2013-01-02 00:56:00,
2013-01-01 17:02:00,39.7,35.6,30.29,SE,126,0.0,6.0,85,0.00,,,0.00,Wunderground v.1.15,2013-01-02 01:02:00,
2013-01-01 17:07:00,39.6,35.2,30.30,SSE,157,0.0,6.0,84,0.00,,,0.00,Wunderground v.1.15,2013-01-02 01:07:00,
2013-01-01 17:13:00,39.4,34.7,30.30,NNE,30,0.0,6.0,83,0.00,,,0.00,Wunderground v.1.15,2013-01-02 01:13:00,
2013-01-01 17:19:00,39.2,34.8,30.30,NNE,30,0.0,6.0,84,0.00,,,0.00,Wunderground v.1.15,2013-01-02 01:19:00,
2013-01-01 17:25:00,39.0,34.3,30.29,NNE,30,0.0,6.0,83,0.00,,,0.00,Wunderground v.1.15,2013-01-02 01:25:00,
2013-01-01 17:31:00,38.8,34.1,30.30,NNE,30,0.0,6.0,83,0.00,,,0.00,Wunderground v.1.15,2013-01-02 01:31:00,
2013-01-01 17:36:00,38.4,34.0,30.29,NNE,30,0.0,6.0,84,0.00,,,0.00,Wunderground v.1.15,2013-01-02 01:36:00,
2013-01-01 17:41:00,38.2,33.8,30.29,NNE,30,0.0,6.0,84,0.00,,,0.00,Wunderground v.1.15,2013-01-02 01:41:00,
2013-01-01 17:47:00,37.7,33.9,30.29,NNE,30,0.0,6.0,86,0.00,,,0.00,Wunderground v.1.15,2013-01-02 01:47:00,
2013-01-01 17:52:00,37.3,34.1,30.29,NNE,30,0.0,6.0,88,0.00,,,0.00,Wunderground v.1.15,2013-01-02 01:52:00,
2013-01-01 17:58:00,36.8,33.6,30.29,NNE,30,0.0,6.0,88,0.00,,,0.00,Wunderground v.1.15,2013-01-02 01:58:00,
2013-01-01 18:04:00,36.4,33.2,30.29,NNE,30,0.0,6.0,88,0.00,,,0.00,Wunderground v.1.15,2013-01-02 02:04:00,
2013-01-01 18:10:00,36.2,33.0,30.28,NNE,30,0.0,6.0,88,0.00,,,0.00,Wunderground v.1.15,2013-01-02 02:10:00,
2013-01-01 18:16:00,36.3,32.8,30.28,NNE,30,0.0,6.0,87,0.00,,,0.00,Wunderground v.1.15,2013-01-02 02:16:00,
2013-01-01 18:22:00,36.4,32.6,30.28,West,279,0.0,6.0,86,0.00,,,0.00,Wunderground v.1.15,2013-01-02 02:22:00,
2013-01-01 18:28:00,36.4,32.6,30.28,NW,321,0.0,6.0,86,0.00,,,0.00,Wunderground v.1.15,2013-01-02 02:28:00,
2013-01-01 18:33:00,36.3,32.5,30.28,NW,321,0.0,6.0,86,0.00,,,0.00,Wunderground v.1.15,2013-01-02 02:33:00,
2013-01-01 18:39:00,36.1,32.3,30.28,NW,321,0.0,6.0,86,0.00,,,0.00,Wunderground v.1.15,2013-01-02 02:39:00,
2013-01-01 18:45:00,35.6,32.7,30.27,NW,321,0.0,6.0,89,0.00,,,0.00,Wunderground v.1.15,2013-01-02 02:45:00,
2013-01-01 18:51:00,35.1,32.5,30.27,NW,321,0.0,6.0,90,0.00,,,0.00,Wunderground v.1.15,2013-01-02 02:51:00,
2013-01-01 18:57:00,34.8,32.2,30.27,North,349,0.0,6.0,90,0.00,,,0.00,Wunderground v.1.15,2013-01-02 02:57:00,
2013-01-01 19:02:00,34.7,32.1,30.27,North,349,0.0,6.0,90,0.00,,,0.00,Wunderground v.1.15,2013-01-02 03:02:00,
2013-01-01 19:07:00,34.8,31.9,30.26,North,350,0.0,6.0,89,0.00,,,0.00,Wunderground v.1.15,2013-01-02 03:07:00,
2013-01-01 19:13:00,34.9,31.7,30.26,North,350,0.0,6.0,88,0.00,,,0.00,Wunderground v.1.15,2013-01-02 03:13:00,
2013-01-01 19:19:00,35.0,31.5,30.26,North,350,0.0,6.0,87,0.00,,,0.00,Wunderground v.1.15,2013-01-02 03:19:00,
2013-01-01 19:25:00,34.9,31.4,30.26,North,350,0.0,6.0,87,0.00,,,0.00,Wunderground v.1.15,2013-01-02 03:25:00,
2013-01-01 19:31:00,34.8,31.3,30.26,North,350,0.0,6.0,87,0.00,,,0.00,Wunderground v.1.15,2013-01-02 03:31:00,
2013-01-01 19:36:00,35.0,31.2,30.26,North,350,0.0,6.0,86,0.00,,,0.00,Wunderground v.1.15,2013-01-02 03:36:00,
2013-01-01 19:41:00,35.0,31.2,30.26,North,350,0.0,6.0,86,0.00,,,0.00,Wunderground v.1.15,2013-01-02 03:41:00,
2013-01-01 19:47:00,34.7,31.2,30.26,North,350,0.0,6.0,87,0.00,,,0.00,Wunderground v.1.15,2013-01-02 03:47:00,
2013-01-01 19:53:00,34.4,31.2,30.26,North,350,0.0,6.0,88,0.00,,,0.00,Wunderground v.1.15,2013-01-02 03:53:00,
2013-01-01 19:58:00,34.0,30.8,30.26,North,350,0.0,6.0,88,0.00,,,0.00,Wunderground v.1.15,2013-01-02 03:58:00,
2013-01-01 20:03:00,33.6,30.7,30.26,North,350,0.0,6.0,89,0.00,,,0.00,Wunderground v.1.15,2013-01-02 04:03:00,
2013-01-01 20:08:00,33.2,30.9,30.26,West,271,0.0,6.0,91,0.00,,,0.00,Wunderground v.1.15,2013-01-02 04:08:00,
2013-01-01 20:13:00,32.9,30.6,30.26,West,271,0.0,6.0,91,0.00,,,0.00,Wunderground v.1.15,2013-01-02 04:13:00,
2013-01-01 20:18:00,32.7,30.6,30.26,West,271,0.0,6.0,92,0.00,,,0.00,Wunderground v.1.15,2013-01-02 04:18:00,
2013-01-01 20:23:00,32.4,30.3,30.26,West,271,0.0,6.0,92,0.00,,,0.00,Wunderground v.1.15,2013-01-02 04:23:00,
2013-01-01 20:28:00,32.2,30.4,30.26,West,271,0.0,6.0,93,0.00,,,0.00,Wunderground v.1.15,2013-01-02 04:28:00,
2013-01-01 20:33:00,32.0,30.2,30.26,West,271,0.0,6.0,93,0.00,,,0.00,Wunderground v.1.15,2013-01-02 04:33:00,
2013-01-01 20:39:00,32.0,30.5,30.26,West,271,0.0,6.0,94,0.00,,,0.00,Wunderground v.1.15,2013-01-02 04:39:00,
2013-01-01 20:45:00,32.0,30.5,30.25,West,271,0.0,6.0,94,0.00,,,0.00,Wunderground v.1.15,2013-01-02 04:45:00,
2013-01-01 20:51:00,31.7,30.2,30.26,West,271,0.0,6.0,94,0.00,,,0.00,Wunderground v.1.15,2013-01-02 04:51:00,
2013-01-01 20:56:00,31.5,30.0,30.26,West,271,0.0,6.0,94,0.00,,,0.00,Wunderground v.1.15,2013-01-02 04:56:00,
2013-01-01 21:00:00,31.4,29.9,30.26,West,271,0.0,6.0,94,0.00,,,0.00,Wunderground v.1.15,2013-01-02 05:00:00,
2013-01-01 21:01:00,31.4,29.9,30.26,West,271,0.0,6.0,94,0.00,,,0.00,Wunderground v.1.15,2013-01-02 05:01:00,
2013-01-01 21:03:00,31.3,29.8,30.26,West,271,0.0,6.0,94,0.00,,,0.00,Wunderground v.1.15,2013-01-02 05:03:00,
2013-01-01 21:08:00,31.2,29.7,30.26,West,271,0.0,6.0,94,0.00,,,0.00,Wunderground v.1.15,2013-01-02 05:08:00,
2013-01-01 21:14:00,31.1,29.8,30.26,West,271,0.0,6.0,95,0.00,,,0.00,Wunderground v.1.15,2013-01-02 05:14:00,
2013-01-01 21:20:00,31.1,29.8,30.25,West,271,0.0,6.0,95,0.00,,,0.00,Wunderground v.1.15,2013-01-02 05:20:00,
2013-01-01 21:25:00,31.0,29.7,30.25,West,271,0.0,6.0,95,0.00,,,0.00,Wunderground v.1.15,2013-01-02 05:25:00,
2013-01-01 21:30:00,30.8,29.5,30.25,West,271,0.0,6.0,95,0.00,,,0.00,Wunderground v.1.15,2013-01-02 05:30:00,
2013-01-01 21:36:00,30.8,29.5,30.25,West,271,0.0,6.0,95,0.00,,,0.00,Wunderground v.1.15,2013-01-02 05:36:00,
2013-01-01 21:41:00,30.7,29.4,30.25,West,271,0.0,6.0,95,0.00,,,0.00,Wunderground v.1.15,2013-01-02 05:41:00,
2013-01-01 21:47:00,30.7,29.4,30.25,West,271,0.0,6.0,95,0.00,,,0.00,Wunderground v.1.15,2013-01-02 05:47:00,
2013-01-01 21:53:00,30.6,29.3,30.25,West,271,0.0,6.0,95,0.00,,,0.00,Wunderground v.1.15,2013-01-02 05:53:00,
2013-01-01 21:59:00,30.6,29.3,30.25,West,271,0.0,6.0,95,0.00,,,0.00,Wunderground v.1.15,2013-01-02 05:59:00,
2013-01-01 22:04:00,30.5,29.2,30.24,West,271,0.0,6.0,95,0.00,,,0.00,Wunderground v.1.15,2013-01-02 06:04:00,
2013-01-01 22:10:00,30.5,29.5,30.24,West,271,0.0,6.0,96,0.00,,,0.00,Wunderground v.1.15,2013-01-02 06:10:00,
2013-01-01 22:16:00,30.5,29.5,30.24,West,271,0.0,6.0,96,0.00,,,0.00,Wunderground v.1.15,2013-01-02 06:16:00,
2013-01-01 22:21:00,30.4,29.4,30.24,West,271,0.0,6.0,96,0.00,,,0.00,Wunderground v.1.15,2013-01-02 06:21:00,
2013-01-01 22:27:00,30.4,29.4,30.24,West,271,0.0,6.0,96,0.00,,,0.00,Wunderground v.1.15,2013-01-02 06:27:00,
2013-01-01 22:32:00,30.4,29.4,30.24,West,271,0.0,6.0,96,0.00,,,0.00,Wunderground v.1.15,2013-01-02 06:32:00,
2013-01-01 22:38:00,30.4,29.4,30.24,West,271,0.0,6.0,96,0.00,,,0.00,Wunderground v.1.15,2013-01-02 06:38:00,
2013-01-01 22:44:00,30.3,29.3,30.24,West,271,0.0,6.0,96,0.00,,,0.00,Wunderground v.1.15,2013-01-02 06:44:00,
2013-01-01 22:50:00,30.4,29.4,30.24,West,271,0.0,6.0,96,0.00,,,0.00,Wunderground v.1.15,2013-01-02 06:50:00,
2013-01-01 22:56:00,30.4,29.4,30.24,West,271,0.0,6.0,96,0.00,,,0.00,Wunderground v.1.15,2013-01-02 06:56:00,
2013-01-01 23:02:00,30.5,29.5,30.24,West,271,0.0,6.0,96,0.00,,,0.00,Wunderground v.1.15,2013-01-02 07:02:00,
2013-01-01 23:07:00,30.6,29.6,30.24,West,271,0.0,6.0,96,0.00,,,0.00,Wunderground v.1.15,2013-01-02 07:07:00,
2013-01-01 23:12:00,30.5,29.5,30.24,West,271,0.0,6.0,96,0.00,,,0.00,Wunderground v.1.15,2013-01-02 07:12:00,
2013-01-01 23:18:00,30.3,29.3,30.24,West,271,0.0,6.0,96,0.00,,,0.00,Wunderground v.1.15,2013-01-02 07:18:00,
2013-01-01 23:24:00,30.3,29.3,30.24,West,271,0.0,6.0,96,0.00,,,0.00,Wunderground v.1.15,2013-01-02 07:24:00,
2013-01-01 23:29:00,30.3,29.3,30.24,West,271,0.0,6.0,96,0.00,,,0.00,Wunderground v.1.15,2013-01-02 07:29:00,
2013-01-01 23:35:00,30.3,29.3,30.24,West,271,0.0,6.0,96,0.00,,,0.00,Wunderground v.1.15,2013-01-02 07:35:00,
2013-01-01 23:41:00,30.3,29.3,30.24,West,271,0.0,6.0,96,0.00,,,0.00,Wunderground v.1.15,2013-01-02 07:41:00,
2013-01-01 23:47:00,30.2,29.2,30.24,West,271,0.0,6.0,96,0.00,,,0.00,Wunderground v.1.15,2013-01-02 07:47:00,
2013-01-01 23:54:00,30.3,29.6,30.24,West,271,0.0,6.0,97,0.00,,,0.00,Wunderground v.1.15,2013-01-02 07:54:00,
2013-01-01 23:59:00,30.5,29.8,30.24,West,271,0.0,6.0,97,0.00,,,0.00,Wunderground v.1.15,2013-01-02 07:59:00,